This is the latest recevied weather packets stored in our database for station/object DO7CRZ-12. If no packets are shown the sender has not sent any weather packets the latest 10 day(s).
| Time | Temp. | Humidity | Pressure | Rain* | Wind** | Luminosity | Snow |
|---|---|---|---|---|---|---|---|
| 1778134044 | 11.11° C | 89% | 1009.4 hPa | 0 mm | - | 13 W/m² | - |
| 1778133442 | 11.11° C | 88% | 1009.4 hPa | 0 mm | - | 12 W/m² | - |
| 1778132838 | 11.67° C | 89% | 1009.1 hPa | 0 mm | - | 24 W/m² | - |
| 1778132250 | 11.11° C | 90% | 1008.9 hPa | 0 mm | - | 56 W/m² | - |
| 1778131647 | 10.56° C | 92% | 1008.6 hPa | 0 mm | - | 42 W/m² | - |
| 1778131044 | 10.56° C | 92% | 1008.6 hPa | 0 mm | - | 25 W/m² | - |
| 1778130441 | 11.11° C | 93% | 1008.5 hPa | 0 mm | - | 13 W/m² | - |
| 1778129843 | 11.11° C | 93% | 1008.5 hPa | 0 mm | - | 14 W/m² | - |
| 1778129235 | 10.56° C | 93% | 1008.5 hPa | 0 mm | - | 12 W/m² | - |
| 1778128648 | 10.56° C | 93% | 1008.5 hPa | 0 mm | - | 8 W/m² | - |
| 1778128045 | 11.11° C | 93% | 1008.4 hPa | 0 mm | - | 4 W/m² | - |
| 1778127442 | 10.56° C | 93% | 1008.4 hPa | 0 mm | - | 3 W/m² | - |
| 1778126839 | 10.56° C | 93% | 1008.3 hPa | 0 mm | - | 3 W/m² | - |
| 1778126236 | 10.56° C | 93% | 1008.2 hPa | 0 mm | - | 1 W/m² | - |
| 1778125653 | 10.56° C | 93% | 1008.2 hPa | 0 mm | - | 1 W/m² | - |
| 1778125046 | 10.56° C | 93% | 1008 hPa | 0 mm | - | 0 W/m² | - |
| 1778124443 | 11.11° C | 93% | 1008.1 hPa | 0 mm | - | 0 W/m² | - |
| 1778123840 | 10.56° C | 93% | 1008.1 hPa | 0 mm | - | 0 W/m² | - |
| 1778123237 | 10.56° C | 94% | 1008 hPa | 0 mm | - | 0 W/m² | - |
| 1778122649 | 10.56° C | 94% | 1008 hPa | 0 mm | - | 0 W/m² | - |
| 1778122046 | 10.56° C | 94% | 1007.9 hPa | 0 mm | - | 0 W/m² | - |
| 1778120238 | 11.11° C | 94% | 1007.6 hPa | 0 mm | - | 0 W/m² | - |
| 1778119635 | 11.11° C | 94% | 1007.5 hPa | 0 mm | - | 0 W/m² | - |
| 1778119048 | 11.67° C | 94% | 1007.5 hPa | 0 mm | - | 0 W/m² | - |
| 1778118444 | 11.67° C | 94% | 1007.5 hPa | 0 mm | - | 0 W/m² | - |
* Rain latest hour (hover to see other rain measurements)
** Current wind speed in m/s (hover to see current wind gust speed)